Theta_e
306 307 308 308 308 309 309 307 306 306 308 309 311 310 312 315 320 320 320 320 325 330 336 336 336 334 334 336 335 333 336 334 333 331 331 330 328 327 326 325 325 324 323
306 307 308 309 308 310 309 307 306 306 307 309 313 315 317 318 319 321 324 324 324 329 336 334 334 333 333 332 333 335 335 334 332 330 330 329 327 325 324 322 322 322 321
307 308 308 308 308 310 309 308 307 309 309 311 313 314 315 318 319 321 324 324 325 324 329 335 335 334 334 333 335 336 334 334 331 329 328 326 324 322 321 323 322 320 319
308 307 308 308 309 309 308 307 307 307 308 312 312 313 314 314 316 318 320 325 325 326 326 330 332 334 335 335 336 335 334 332 330 328 326 324 323 323 322 321 320 320 318
309 308 308 308 309 309 308 308 307 306 307 312 311 312 312 312 313 315 317 321 325 326 325 324 323 327 331 333 334 334 333 331 328 327 326 323 322 322 321 319 319 318 316
309 308 308 309 309 308 308 308 307 308 313 312 312 311 311 311 312 313 314 318 324 326 327 325 326 325 327 331 333 333 331 329 327 325 324 323 322 320 319 318 317 318 317
308 307 307 308 309 308 308 310 310 311 311 313 312 312 312 311 310 310 312 316 321 324 324 326 327 326 326 328 330 330 330 328 327 325 324 323 321 320 319 320 318 318 317
308 308 308 308 308 308 308 309 309 307 309 311 309 309 306 309 310 309 310 313 317 320 320 321 322 321 321 322 324 328 328 328 326 324 322 321 321 320 320 319 317 316 315
307 308 308 308 309 309 308 308 308 307 305 308 307 308 304 304 305 308 308 309 314 315 316 316 316 316 317 317 320 322 324 325 325 323 320 319 319 320 319 319 316 314 313
307 307 308 308 309 310 309 309 310 308 306 304 304 307 306 309 304 303 307 307 309 310 312 312 311 312 312 312 310 309 315 319 320 321 320 320 319 319 319 317 315 314 314
306 307 307 308 308 310 310 310 309 308 308 305 304 303 306 308 308 305 301 304 306 306 309 309 308 308 307 309 311 309 313 315 316 316 319 319 320 319 317 316 315 316 313
305 306 307 307 308 309 310 309 310 308 308 307 305 304 304 304 305 303 302 301 301 303 306 307 307 305 305 306 304 303 310 314 315 315 316 317 319 319 317 316 317 315 313
305 305 306 307 307 309 310 310 309 308 308 307 305 305 306 305 306 306 305 301 299 300 303 306 305 305 304 306 304 303 305 311 313 314 314 315 317 317 317 316 315 313 310
306 307 307 308 308 310 310 310 309 308 307 306 306 306 305 305 308 309 307 304 299 299 300 300 305 303 303 304 300 299 307 307 311 313 313 314 315 315 315 314 312 309 307
307 306 307 307 307 309 310 309 309 307 307 306 305 305 306 305 307 305 307 307 305 299 298 300 302 304 302 302 299 306 307 301 308 310 311 312 313 313 312 312 310 308 306
307 306 307 307 308 309 309 309 308 307 306 305 305 305 306 306 307 308 306 305 304 302 296 299 301 303 300 301 298 303 302 299 302 305 307 308 309 310 310 310 309 306 305
306 306 307 307 308 308 309 308 307 307 307 305 305 306 306 307 308 308 307 307 305 303 298 297 300 302 301 298 299 300 301 304 303 301 304 306 306 306 306 306 306 305 304
306 307 307 307 308 308 309 308 307 307 307 305 305 306 305 307 307 307 306 304 303 303 302 299 298 298 299 298 297 295 296 296 297 299 302 303 303 303 303 303 303 302 301
306 306 307 306 307 308 308 308 309 308 308 307 307 306 306 306 303 302 302 302 302 301 300 300 297 298 298 297 295 292 291 292 294 296 299 299 301 301 302 301 301 299 298
305 306 306 306 307 308 309 308 308 308 308 307 307 307 307 306 303 302 300 299 299 298 299 300 297 295 295 294 292 293 290 285 290 294 295 294 296 296 299 300 299 296 297
305 306 306 306 307 308 308 307 308 307 307 307 306 307 306 301 298 300 301 298 298 298 299 298 296 294 292 288 290 287 285 286 288 288 291 293 294 294 296 297 294 295 297
304 305 305 306 305 307 300 300 305 307 307 307 306 304 301 293 297 297 297 298 300 299 298 297 296 295 293 291 288 287 287 287 289 287 286 289 289 292 293 293 295 296 296
304 304 305 305 305 306 298 299 299 307 307 308 308 304 300 299 296 299 296 296 295 297 298 297 296 296 293 291 288 287 288 289 288 287 288 287 284 287 289 290 294 294 296
303 304 304 305 305 304 298 298 297 306 307 307 307 305 303 298 299 299 299 297 296 296 296 296 296 294 295 293 293 294 293 288 286 286 287 288 286 286 286 286 291 293 294
303 303 304 304 304 302 297 297 302 305 303 302 302 302 301 300 294 296 298 296 294 292 293 295 296 296 295 294 293 292 287 287 287 286 285 286 286 285 285 286 286 292 293
302 302 302 304 298 300 296 296 302 305 302 299 299 297 291 299 293 296 299 296 292 290 290 290 290 292 292 292 292 296 292 287 286 287 287 287 285 285 287 285 285 286 288
Wind_Speed
4 4 3 4 3 3 4 4 4 5 5 6 7 6 7 9 8 6 4 11 10 6 13 17 17 16 14 19 21 20 27 29 22 22 25 26 24 22 21 20 20 18 17
4 4 4 4 3 4 4 3 3 4 4 5 9 8 11 8 8 7 6 6 15 9 14 17 16 13 7 12 15 23 28 29 28 26 25 25 23 21 20 19 18 18 17
6 5 4 4 3 4 5 3 4 5 6 6 8 8 8 9 9 9 7 6 8 16 8 13 15 15 18 15 22 28 32 30 29 26 25 25 22 20 18 21 20 18 16
7 5 4 4 4 4 4 3 3 4 5 6 6 7 8 9 9 11 9 7 7 7 10 12 12 20 24 26 29 31 31 29 28 27 25 24 22 20 20 19 17 17 17
6 5 4 4 5 4 4 2 3 3 4 6 7 7 7 8 9 9 11 11 9 8 6 13 15 15 20 25 28 28 28 28 28 26 24 22 20 20 19 17 16 16 14
7 6 4 5 4 5 4 3 4 3 5 6 7 8 8 8 7 8 9 8 9 10 9 9 8 9 18 22 26 28 29 28 27 24 21 20 20 18 17 16 15 15 13
7 6 4 5 5 6 5 4 4 6 4 2 5 7 7 9 11 8 7 8 9 10 11 9 7 7 10 23 23 27 28 27 25 22 20 20 18 17 17 17 15 14 12
7 7 7 6 6 5 6 4 2 2 1 1 2 2 3 5 7 8 8 8 10 9 12 12 12 11 8 7 12 23 25 25 24 22 20 19 18 17 18 16 14 14 11
7 7 7 6 7 5 5 5 4 5 2 3 3 3 2 3 1 5 9 8 10 10 10 11 11 10 9 7 7 12 18 21 22 22 21 19 18 17 16 15 14 12 10
7 7 7 6 7 6 5 4 4 3 4 3 2 3 3 4 2 3 5 7 10 10 10 9 9 9 8 6 9 10 11 14 17 18 18 18 17 16 16 14 12 12 12
7 7 7 7 7 5 6 6 4 4 3 3 3 2 3 3 3 3 4 4 9 7 8 8 6 6 7 6 5 7 12 12 11 12 12 14 15 15 14 13 11 11 10
6 7 7 7 6 6 6 5 5 5 4 4 3 3 4 4 4 3 4 4 6 5 6 7 7 5 4 5 5 7 10 11 11 10 9 9 11 12 12 11 12 10 10
6 9 8 8 6 5 6 6 5 5 5 5 5 4 2 4 4 4 7 4 4 3 4 6 5 4 4 4 4 7 8 9 10 10 9 11 10 10 11 11 11 10 10
9 10 9 8 7 7 6 6 4 4 5 5 7 4 4 5 7 8 5 11 6 3 4 2 3 4 4 3 4 8 5 9 9 9 10 10 11 12 12 11 10 9 8
9 11 10 10 8 7 7 6 4 5 5 5 5 6 6 4 6 4 5 5 8 6 2 1 2 4 3 4 6 5 5 8 10 10 10 10 11 12 11 7 8 6 6
12 12 11 10 9 8 7 7 5 5 6 4 4 7 6 5 7 6 4 3 2 4 5 2 1 2 4 5 7 7 6 9 11 11 10 10 10 10 6 5 6 5 3
13 13 13 12 11 10 8 8 6 7 8 7 6 9 8 9 7 7 4 5 5 3 7 2 2 3 4 6 6 6 6 6 5 9 9 8 7 7 6 5 5 4 3
13 14 13 12 11 10 9 9 8 7 10 9 9 9 10 8 9 7 5 5 4 3 7 11 2 2 5 4 4 5 5 4 4 7 7 7 7 5 3 3 3 4 3
14 14 14 13 12 12 10 9 9 9 9 9 10 11 11 11 7 4 5 6 5 4 5 7 4 2 3 2 4 4 3 3 3 6 7 6 4 1 0 2 1 2 2
15 15 14 13 12 12 11 10 10 9 8 8 8 9 10 11 9 8 6 7 6 7 7 7 4 3 3 2 3 2 2 2 1 2 2 2 3 4 4 3 4 2 3
14 15 14 13 12 12 9 12 11 11 11 9 6 8 8 8 11 10 9 8 9 6 7 7 5 3 2 1 2 1 1 2 2 0 2 1 2 2 3 4 5 5 6
14 14 14 14 13 9 13 14 12 11 11 12 10 7 7 9 10 12 11 11 11 14 10 7 7 7 5 3 2 3 3 2 2 0 0 3 1 3 2 3 5 8 8
15 15 14 14 14 11 17 16 14 10 11 11 12 10 7 5 8 8 10 12 8 7 9 9 12 11 9 8 6 3 3 3 3 2 2 2 1 2 3 3 8 7 7
16 15 14 14 13 10 17 17 16 10 9 10 11 11 10 9 8 10 10 8 7 6 7 5 7 7 6 10 7 4 5 4 1 1 1 1 1 1 2 2 7 8 7
13 14 14 14 14 10 17 17 15 10 8 8 8 9 10 10 13 15 11 10 7 3 5 6 8 10 10 13 9 6 3 3 1 2 2 2 1 2 1 2 3 7 7
13 10 12 12 12 11 16 18 13 8 10 6 6 6 11 11 17 17 12 12 9 6 7 6 4 7 7 8 12 3 5 3 2 2 3 3 1 0 2 2 2 2 3
Wind_Direction
119 118 110 97 90 75 75 52 49 55 44 28 30 6 25 45 45 31 20 22 13 2 119 108 112 103 107 116 128 137 137 130 132 134 119 114 111 107 105 103 100 99 97
128 124 119 107 96 80 85 76 73 66 51 36 46 27 51 38 29 38 38 14 15 77 116 109 115 101 116 154 147 146 134 127 124 117 113 108 106 104 103 103 102 102 100
137 138 125 114 123 96 93 70 51 47 61 44 44 33 28 34 31 22 21 18 14 41 86 119 113 93 86 86 136 129 120 117 117 111 107 105 105 101 105 106 106 105 98
142 140 127 129 137 96 101 85 76 59 63 61 49 37 39 29 30 27 23 30 33 38 49 77 98 108 100 98 118 113 116 117 115 114 110 108 106 109 110 106 106 106 103
147 138 131 134 130 109 103 98 76 89 71 72 62 48 41 41 32 25 24 24 34 44 50 60 62 101 103 110 112 111 116 116 112 112 112 114 115 113 108 105 107 106 101
150 139 129 132 132 105 103 78 105 71 89 89 79 62 47 41 36 34 25 18 32 43 54 57 57 76 100 111 114 115 112 112 112 113 116 114 112 107 103 104 107 104 104
154 147 136 135 142 131 138 144 108 105 93 88 88 75 64 53 41 26 23 31 40 60 64 59 65 73 82 101 108 114 115 116 116 116 111 106 106 107 111 109 104 95 93
160 154 150 150 159 141 141 162 131 100 81 32 101 70 53 36 29 20 27 35 47 60 62 60 66 59 57 76 108 116 119 119 114 110 107 107 107 109 106 103 95 90 85
167 159 160 155 165 160 159 172 170 146 167 39 47 118 104 83 86 2 24 35 47 60 56 57 54 49 53 56 65 103 116 120 116 113 110 114 113 113 107 107 105 95 86
169 165 164 161 164 168 170 178 173 152 135 149 64 34 100 107 117 94 31 30 49 48 48 52 50 45 42 48 57 79 86 100 109 112 114 119 118 117 118 111 106 109 91
169 170 167 165 165 168 176 172 178 175 156 148 139 160 85 88 58 102 102 83 60 34 42 45 44 49 41 49 63 87 94 97 100 109 121 125 126 120 119 113 110 107 90
173 174 170 168 168 167 174 166 177 183 176 150 146 161 140 142 144 129 108 83 89 33 46 44 38 25 39 60 38 79 99 105 112 114 119 122 115 121 117 103 97 83 68
183 184 171 172 173 167 170 157 168 183 174 161 156 155 119 119 121 111 125 110 104 39 43 43 35 21 34 51 47 91 87 103 111 104 105 107 93 97 99 99 83 73 66
179 172 174 173 170 163 167 158 155 167 154 152 153 144 127 125 134 144 145 139 110 81 55 23 15 16 31 31 54 86 99 108 104 95 96 97 88 88 83 88 90 83 74
173 171 172 173 171 164 166 157 157 159 149 146 152 138 135 134 129 118 138 160 139 141 120 63 114 28 28 48 19 66 76 66 78 88 90 101 101 91 89 93 94 82 73
168 171 171 173 172 167 165 158 155 151 141 134 139 138 135 140 135 136 151 134 99 113 126 131 82 103 43 54 27 53 55 63 67 81 86 93 93 95 99 94 86 71 61
169 173 173 172 172 170 166 160 159 152 144 139 138 149 149 151 149 140 128 109 117 103 114 84 86 70 61 64 43 48 42 56 58 70 89 98 97 83 79 75 86 70 35
171 172 171 172 172 170 167 165 159 160 154 154 153 152 150 146 144 142 139 126 129 102 134 135 104 82 74 55 58 58 38 42 55 51 73 75 83 83 80 70 68 62 31
170 171 171 173 174 170 169 166 165 161 161 161 163 158 158 151 143 134 125 123 110 99 118 137 115 98 95 78 69 56 44 31 35 40 52 51 52 64 97 51 6 68 37
167 171 173 172 174 168 171 166 163 158 157 157 164 159 161 161 151 142 132 126 122 117 119 124 104 87 94 51 76 93 21 359 340 6 21 33 350 335 326 309 305 334 329
170 169 166 170 170 172 172 168 168 162 159 152 153 154 160 150 145 154 148 148 136 129 135 143 141 111 135 119 160 156 116 306 308 14 304 287 307 293 279 312 309 301 294
166 165 170 170 170 177 168 163 164 164 162 162 164 157 144 139 146 147 131 146 154 152 152 157 171 175 169 157 144 171 124 120 258 245 98 293 350 283 321 331 320 300 290
164 170 171 170 174 176 166 164 160 165 166 171 171 164 150 147 141 135 131 126 116 121 149 157 169 181 177 180 155 150 164 164 204 243 126 279 14 306 10 3 349 333 319
169 171 172 173 171 173 168 163 160 159 167 171 169 169 166 158 154 141 146 136 141 142 160 158 164 162 182 172 173 157 159 132 50 330 140 243 352 286 336 358 1 10 10
168 172 172 169 172 170 168 163 160 161 160 161 154 158 159 161 156 144 149 144 136 114 67 152 158 159 157 158 147 121 142 109 255 255 186 141 293 301 336 312 340 18 38
167 162 167 174 168 165 170 165 162 162 161 153 139 145 154 161 159 155 154 153 148 168 137 115 94 85 117 143 163 175 149 129 119 357 206 152 198 79 348 282 314 11 1